Location: Casilda
(33.0440°S, 61.1680°W)
Time: 11:01:09
(UTC-03:00)

ISS - Pass Details

Date: 09 April 2021
Orbit: 418 x 422 km, 51.6° (Epoch: 11 April)

Event Time Altitude Azimuth Distance (km) Brightness Sun altitude
Exits shadow 05:42:02 - 181° (S) 1,617 -0.8 -21.8°
Reaches altitude 10° 05:42:33 10° 174° (S) 1,528 -0.8 -21.7°
Maximum altitude 05:43:50 12° 152° (SSE) 1,430 -0.7 -21.4°
Drops below altitude 10° 05:45:06 10° 130° (SE) 1,524 -0.2 -21.2°
Sets 05:48:25 0° 95° (E) 2,384 1.7 -20.5°
